GW4466 Weather Reports


Display with metric or nautical units.
time (UTC)temp
F
wind
direction
speed
MPH
gust
MPH
rain 1hr
in
rain 24hr
in
rain mn
in
humidity
%
barometer
mb
20260906103806 77 92 12.0 13.0 0.00 0.00 0.00 79 1010.4
20260906103305 77 88 6.0 13.0 0.00 0.00 0.00 78 1010.4
20260906102806 77 98 11.0 17.0 0.00 0.00 0.00 79 1010.4
20260906102306 77 89 7.0 17.0 0.00 0.00 0.00 79 1010.1
20260906101806 77 75 11.0 17.0 0.00 0.00 0.00 79 1010.1
20260906101306 77 110 10.0 16.0 0.00 0.00 0.00 80 1010.4
20260906100805 77 77 9.0 21.0 0.00 0.00 0.00 80 1010.1
20260906100305 77 90 12.0 21.0 0.00 0.00 0.00 79 1010.4
20260906095806 78 78 18.0 19.0 0.00 0.00 0.00 79 1010.4
20260906095306 79 47 8.0 14.0 0.00 0.00 0.00 80 1010.4
20260906094806 79 93 9.0 14.0 0.00 0.00 0.00 79 1010.1
20260906094307 79 122 7.0 14.0 0.00 0.00 0.00 79 1010.1
20260906093805 79 127 12.0 14.0 0.00 0.00 0.00 80 1010.1
20260906093305 79 112 5.0 13.0 0.00 0.00 0.00 81 1009.7
20260906092805 79 122 7.0 11.0 0.00 0.00 0.00 81 1009.7
20260906092306 79 126 7.0 11.0 0.00 0.00 0.00 81 1009.7
20260906091806 79 127 7.0 13.0 0.00 0.00 0.00 81 1009.7
20260906091305 79 141 6.0 13.0 0.00 0.00 0.00 81 1009.7
20260906090806 79 130 7.0 15.0 0.00 0.00 0.00 81 1009.7
20260906090306 80 132 9.0 15.0 0.00 0.00 0.00 81 1010.1
20260906085805 80 144 11.0 15.0 0.00 0.00 0.00 81 1010.1
20260906085307 80 138 11.0 18.0 0.00 0.00 0.00 81 1009.7
20260906084806 80 130 11.0 18.0 0.00 0.00 0.00 80 1009.7
20260906084305 80 119 9.0 18.0 0.00 0.00 0.00 80 1009.7
20260906083805 80 130 15.0 17.0 0.00 0.00 0.00 81 1009.7
20260906083305 80 158 9.0 19.0 0.00 0.00 0.00 81 1009.0
20260906082806 80 118 11.0 19.0 0.00 0.00 0.00 81 1009.7
20260906082306 80 167 6.0 18.0 0.00 0.00 0.00 82 1008.7
20260906081806 80 121 8.0 18.0 0.00 0.00 0.00 83 1009.4
20260906081306 80 118 7.0 19.0 0.00 0.00 0.00 84 1009.0
20260906080805 79 84 11.0 19.0 0.00 0.00 0.00 85 1009.4
20260906080306 79 148 5.0 12.0 0.00 0.00 0.00 84 1009.0
20260906075805 80 122 3.0 12.0 0.00 0.00 0.00 85 1009.4
20260906075306 80 142 9.0 12.0 0.00 0.00 0.00 84 1009.0
20260906074806 80 163 10.0 14.0 0.00 0.00 0.00 85 1009.0
20260906074306 81 163 2.0 14.0 0.00 0.00 0.00 84 1009.0
20260906073806 81 146 5.0 5.0 0.00 0.00 0.00 82 1008.7
20260906073306 82 126 1.0 6.0 0.00 0.00 0.00 82 1008.7
20260906072806 81 125 5.0 6.0 0.00 0.00 0.00 83 1008.7
20260906072306 81 112 5.0 6.0 0.00 0.00 0.00 84 1009.0
20260906071805 81 115 5.0 6.0 0.00 0.00 0.00 84 1009.0
20260906071305 81 103 5.0 6.0 0.00 0.00 0.00 85 1009.0
20260906070804 81 101 5.0 6.0 0.00 0.00 0.00 85 1009.0
20260906070305 81 107 4.0 6.0 0.00 0.00 0.00 84 1008.7
20260906065805 81 116 3.0 3.0 0.00 0.00 0.00 83 1008.7
20260906065306 81 119 2.0 2.0 0.00 0.00 0.00 81 1009.0
20260906064805 81 219 0.0 3.0 0.00 0.00 0.00 81 1008.7
20260906064306 81 257 0.0 3.0 0.00 0.00 0.00 81 1009.0
20260906063805 81 124 2.0 2.0 0.00 0.00 0.00 80 1009.0
20260906063305 81 115 1.0 3.0 0.00 0.00 0.00 81 1009.0
20260906062805 82 119 2.0 3.0 0.00 0.00 0.00 81 1009.0
20260906062306 82 183 1.0 4.0 0.00 0.00 0.00 79 1009.0
20260906061806 82 246 2.0 4.0 0.00 0.00 0.00 80 1009.0
20260906061305 82 255 3.0 4.0 0.00 0.00 0.00 80 1009.0
20260906060805 83 268 3.0 4.0 0.00 0.00 0.00 78 1008.7
20260906060306 82 284 4.0 4.0 0.00 0.00 0.00 80 1008.3
20260906055806 80 279 4.0 5.0 0.00 0.00 0.00 84 1009.0
20260906055306 80 260 3.0 6.0 0.00 0.00 0.00 85 1008.7
20260906054805 80 266 3.0 7.0 0.00 0.00 0.00 86 1008.7
20260906054305 81 242 5.0 7.0 0.00 0.00 0.00 83 1008.7
20260906053805 82 232 2.0 6.0 0.00 0.00 0.00 80 1008.7
20260906053306 82 210 3.0 6.0 0.00 0.00 0.00 78 1008.7
20260906052805 83 202 1.0 4.0 0.00 0.00 0.00 75 1008.7
20260906052306 84 98 1.0 4.0 0.00 0.00 0.00 73 1008.7
20260906051806 84 66 4.0 4.0 0.00 0.00 0.00 73 1008.7
20260906051305 84 80 2.0 3.0 0.00 0.00 0.00 74 1009.0
20260906050806 84 57 2.0 4.0 0.00 0.00 0.00 73 1009.0
20260906050305 84 71 3.0 4.0 0.00 0.00 0.00 74 1009.0
20260906045806 84 55 3.0 4.0 0.00 0.00 0.00 73 1009.4
20260906045306 85 53 2.0 4.0 0.00 0.00 0.00 71 1009.0
20260906044805 85 33 4.0 5.0 0.00 0.00 0.00 70 1009.0
20260906044305 86 104 1.0 5.0 0.00 0.00 0.00 68 1009.4
20260906043805 85 106 4.0 5.0 0.00 0.00 0.00 70 1009.4
20260906043306 85 97 4.0 4.0 0.00 0.00 0.00 70 1009.4
20260906042806 85 102 3.0 6.0 0.00 0.00 0.00 71 1009.4
20260906042306 85 127 3.0 7.0 0.00 0.00 0.00 72 1009.4
20260906041805 85 114 5.0 9.0 0.00 0.00 0.00 73 1009.0
20260906041305 85 102 4.0 9.0 0.00 0.00 0.00 72 1009.4
20260906040806 85 104 8.0 9.0 0.00 0.00 0.00 72 1009.4
20260906040305 85 117 5.0 7.0 0.00 0.00 0.00 72 1009.0
20260906035806 85 126 5.0 5.0 0.00 0.00 0.00 71 1009.0
20260906035306 85 123 4.0 5.0 0.00 0.00 0.00 72 1009.0
20260906034805 85 132 3.0 5.0 0.00 0.00 0.00 72 1009.0
20260906034305 84 122 4.0 4.0 0.00 0.00 0.00 72 1009.0
20260906033805 85 141 2.0 3.0 0.00 0.00 0.00 72 1009.0
20260906033306 85 140 2.0 3.0 0.00 0.00 0.00 71 1009.0
20260906032805 85 60 2.0 3.0 0.00 0.00 0.00 70 1009.0
20260906032306 86 157 0.0 3.0 0.00 0.00 0.00 69 1009.4
20260906031805 86 315 1.0 4.0 0.00 0.00 0.00 69 1009.0
20260906031305 86 308 2.0 4.0 0.00 0.00 0.00 67 1009.0
20260906030805 87 320 2.0 3.0 0.00 0.00 0.00 65 1009.0
20260906030305 88 331 0.0 2.0 0.00 0.00 0.00 63 1008.7
20260906025805 88 349 0.0 2.0 0.00 0.00 0.00 63 1009.0
20260906025306 89 77 0.0 3.0 0.00 0.00 0.00 62 1008.7
20260906024805 89 132 1.0 4.0 0.00 0.00 0.00 61 1008.7
20260906024305 90 43 2.0 5.0 0.00 0.00 0.00 59 1008.7
20260906023805 90 50 4.0 5.0 0.00 0.00 0.00 57 1008.7
20260906023305 90 41 5.0 6.0 0.00 0.00 0.00 57 1008.3
20260906022806 90 35 5.0 6.0 0.00 0.00 0.00 57 1008.7
20260906022307 90 38 5.0 6.0 0.00 0.00 0.00 57 1008.3
20260906021805 90 36 5.0 6.0 0.00 0.00 0.00 57 1008.3
20260906021305 90 39 5.0 5.0 0.00 0.00 0.00 57 1008.3
20260906020805 90 45 5.0 5.0 0.00 0.00 0.00 59 1008.3
20260906020305 90 62 3.0 5.0 0.00 0.00 0.00 59 1008.0
20260906015806 90 59 3.0 5.0 0.00 0.00 0.00 58 1008.0
20260906015306 91 42 4.0 5.0 0.00 0.00 0.00 55 1008.0
20260906014805 91 44 4.0 5.0 0.00 0.00 0.00 55 1008.0
20260906014304 91 47 4.0 4.0 0.00 0.00 0.00 55 1008.0
20260906013805 91 53 3.0 4.0 0.00 0.00 0.00 55 1008.0
20260906013306 91 55 3.0 4.0 0.00 0.00 0.00 55 1008.0
20260906012805 91 47 2.0 4.0 0.00 0.00 0.00 56 1008.0
20260906012306 92 51 3.0 4.0 0.00 0.00 0.00 55 1008.3
20260906011805 92 68 3.0 4.0 0.00 0.00 0.00 55 1008.0
20260906011305 92 84 3.0 5.0 0.00 0.00 0.00 55 1008.0
20260906010805 92 86 4.0 5.0 0.00 0.00 0.00 55 1007.6
20260906010305 92 68 4.0 5.0 0.00 0.00 0.00 55 1008.0
20260906005805 92 66 4.0 4.0 0.00 0.00 0.00 54 1008.0
20260906005306 92 69 3.0 5.0 0.00 0.00 0.00 53 1007.6
20260906004805 92 62 3.0 5.0 0.00 0.00 0.00 54 1007.6
20260906004306 92 62 4.0 5.0 0.00 0.00 0.00 52 1007.3
20260906003804 92 40 4.0 4.0 0.00 0.00 0.00 53 1007.6
20260906003305 93 42 2.0 4.0 0.00 0.00 0.00 54 1007.3
20260906002805 93 41 3.0 4.0 0.00 0.00 0.00 53 1007.3
20260906002306 93 47 4.0 4.0 0.00 0.00 0.00 52 1007.6
20260906001805 93 58 3.0 4.0 0.00 0.00 0.00 52 1007.6
20260906001306 93 48 3.0 5.0 0.00 0.00 0.00 52 1007.6
20260906000805 93 37 4.0 4.0 0.00 0.00 0.00 51 1007.3
20260906000304 94 64 3.0 5.0 0.00 0.00 0.00 51 1007.6
20260905235805 94 68 2.0 5.0 0.00 0.00 0.00 50 1007.6
20260905235306 94 36 4.0 5.0 0.00 0.00 0.00 50 1007.6
20260905234805 94 38 4.0 8.0 0.00 0.00 0.00 50 1008.0
20260905234306 94 106 3.0 8.0 0.00 0.00 0.00 50 1007.6
20260905233805 95 71 3.0 7.0 0.00 0.00 0.00 49 1007.6
20260905233305 94 42 3.0 9.0 0.00 0.00 0.00 49 1008.0
20260905232805 95 42 4.0 9.0 0.00 0.00 0.00 49 1008.0
20260905232306 95 114 5.0 7.0 0.00 0.00 0.00 48 1008.0
20260905231805 95 88 6.0 9.0 0.00 0.00 0.00 48 1007.6
20260905231306 95 60 5.0 9.0 0.00 0.00 0.00 48 1007.6
20260905230805 95 30 7.0 10.0 0.00 0.00 0.00 48 1007.6
20260905230305 95 51 3.0 11.0 0.00 0.00 0.00 48 1007.3
20260905225805 95 49 7.0 11.0 0.00 0.00 0.00 48 1007.3
20260905225306 95 65 4.0 8.0 0.00 0.00 0.00 48 1007.3
20260905224806 95 30 5.0 8.0 0.00 0.00 0.00 47 1007.3
20260905224305 95 112 3.0 9.0 0.00 0.00 0.00 47 1007.3
20260905223805 95 110 5.0 11.0 0.00 0.00 0.00 47 1007.3
20260905223305 96 48 7.0 11.0 0.00 0.00 0.00 46 1007.3
20260905222805 96 55 6.0 10.0 0.00 0.00 0.00 46 1007.3
20260905222306 95 180 0.0 10.0 0.00 0.00 0.00 47 1007.6
20260905221805 96 69 3.0 7.0 0.00 0.00 0.00 47 1007.3
20260905221305 97 26 0.0 6.0 0.00 0.00 0.00 46 1007.3
20260905220804 98 97 2.0 5.0 0.00 0.00 0.00 45 1007.6
20260905220305 98 47 2.0 5.0 0.00 0.00 0.00 44 1007.6
20260905215805 98 249 0.0 5.0 0.00 0.00 0.00 44 1007.6
20260905215306 97 276 3.0 5.0 0.00 0.00 0.00 45 1007.3
20260905214805 96 97 1.0 3.0 0.00 0.00 0.00 45 1008.0
20260905214305 97 60 1.0 2.0 0.00 0.00 0.00 45 1007.6
20260905213805 96 244 0.0 4.0 0.00 0.00 0.00 46 1007.6
20260905213305 95 154 1.0 6.0 0.00 0.00 0.00 47 1008.0
20260905212805 95 77 2.0 6.0 0.00 0.00 0.00 46 1008.0
20260905212306 95 100 6.0 9.0 0.00 0.00 0.00 47 1008.0
20260905211805 95 96 3.0 9.0 0.00 0.00 0.00 48 1008.0
20260905211305 95 141 4.0 10.0 0.00 0.00 0.00 48 1008.0
20260905210805 95 76 7.0 10.0 0.00 0.00 0.00 48 1007.6
20260905210305 95 119 7.0 9.0 0.00 0.00 0.00 48 1008.0
20260905205805 96 123 5.0 7.0 0.00 0.00 0.00 48 1008.3
20260905205306 95 145 5.0 7.0 0.00 0.00 0.00 49 1008.0
20260905204805 95 173 3.0 7.0 0.00 0.00 0.00 48 1008.0
20260905204305 95 125 2.0 7.0 0.00 0.00 0.00 49 1008.0
20260905203805 94 118 4.0 10.0 0.00 0.00 0.00 49 1008.3
20260905203305 95 112 4.0 10.0 0.00 0.00 0.00 49 1008.0
20260905202805 95 101 6.0 9.0 0.00 0.00 0.00 49 1008.0
20260905202306 95 73 3.0 10.0 0.00 0.00 0.00 49 1008.3
20260905201805 95 82 5.0 10.0 0.00 0.00 0.00 49 1008.3
20260905201305 95 71 3.0 10.0 0.00 0.00 0.00 48 1008.3
20260905200805 96 31 2.0 9.0 0.00 0.00 0.00 47 1008.3
20260905200305 95 3 4.0 9.0 0.00 0.00 0.00 48 1008.7
20260905195805 96 327 5.0 7.0 0.00 0.00 0.00 48 1008.7
20260905195306 95 70 5.0 9.0 0.00 0.00 0.00 49 1008.7
20260905194805 94 71 4.0 15.0 0.00 0.00 0.00 49 1008.7
20260905194304 95 95 5.0 15.0 0.00 0.00 0.00 48 1009.0
20260905193803 96 121 11.0 15.0 0.00 0.00 0.00 46 1009.0
20260905193303 96 182 3.0 7.0 0.00 0.00 0.00 46 1009.0
20260905192804 96 188 4.0 7.0 0.00 0.00 0.00 45 1009.4
20260905192306 95 159 3.0 11.0 0.00 0.00 0.00 46 1009.4
20260905191805 94 79 5.0 11.0 0.00 0.00 0.00 48 1009.4
20260905191304 95 83 8.0 8.0 0.00 0.00 0.00 48 1009.4
20260905190804 95 176 3.0 8.0 0.00 0.00 0.00 48 1009.7
20260905190304 95 28 4.0 9.0 0.00 0.00 0.00 47 1009.7
20260905185804 95 80 4.0 11.0 0.00 0.00 0.00 47 1009.7
20260905185306 95 119 3.0 11.0 0.00 0.00 0.00 47 1009.7
20260905184804 95 177 2.0 8.0 0.00 0.00 0.00 48 1009.7
20260905184305 95 238 2.0 8.0 0.00 0.00 0.00 48 1009.7
20260905183804 94 123 1.0 8.0 0.00 0.00 0.00 49 1009.7
20260905183304 93 46 0.0 9.0 0.00 0.00 0.00 52 1010.1
20260905182804 93 7 6.0 12.0 0.00 0.00 0.00 52 1010.4
20260905182306 93 5 7.0 12.0 0.00 0.00 0.00 53 1010.1
20260905181804 94 53 9.0 10.0 0.00 0.00 0.00 51 1010.1
20260905181304 93 189 2.0 9.0 0.00 0.00 0.00 53 1010.1
20260905180804 93 98 5.0 9.0 0.00 0.00 0.00 53 1010.1
20260905180304 92 75 4.0 11.0 0.00 0.00 0.00 53 1010.4
20260905175804 92 119 5.0 11.0 0.00 0.00 0.00 54 1010.1
20260905175306 94 95 3.0 9.0 0.00 0.00 0.00 52 1010.1
20260905174804 94 9 4.0 9.0 0.00 0.00 0.00 53 1010.1
20260905174304 93 315 2.0 6.0 0.00 0.00 0.00 54 1010.1
20260905173803 93 40 5.0 9.0 0.00 0.00 0.00 52 1010.1
20260905173304 93 134 4.0 9.0 0.00 0.00 0.00 53 1010.1
20260905172804 93 334 3.0 7.0 0.00 0.00 0.00 52 1010.1
20260905172305 92 280 1.0 10.0 0.00 0.00 0.00 54 1010.4
20260905171803 92 97 4.0 10.0 0.00 0.00 0.00 55 1010.4
20260905171304 93 110 7.0 10.0 0.00 0.00 0.00 54 1010.4
20260905170804 92 68 7.0 10.0 0.00 0.00 0.00 55 1010.4
20260905170304 91 88 5.0 7.0 0.00 0.00 0.00 57 1010.8
20260905165804 92 307 3.0 8.0 0.00 0.00 0.00 56 1010.4
20260905165306 92 39 5.0 8.0 0.00 0.00 0.00 56 1010.8
20260905164804 91 142 6.0 10.0 0.00 0.00 0.00 57 1010.8
20260905164304 91 103 5.0 10.0 0.00 0.00 0.00 58 1011.1
20260905163804 93 26 5.0 6.0 0.00 0.00 0.00 55 1010.8
20260905163304 91 243 1.0 8.0 0.00 0.00 0.00 58 1010.8
20260905162803 90 186 2.0 8.0 0.00 0.00 0.00 60 1010.8
20260905162306 91 68 4.0 7.0 0.00 0.00 0.00 59 1010.8
20260905161804 92 4.0 5.0 0.00 0.00 0.00 59 1010.8
20260905161304 89 244 2.0 9.0 0.00 0.00 0.00 62 1011.1
20260905160804 89 58 4.0 9.0 0.00 0.00 0.00 63 1011.5
20260905160304 89 38 7.0 8.0 0.00 0.00 0.00 63 1011.1
20260905155804 89 73 3.0 6.0 0.00 0.00 0.00 62 1011.5
20260905155306 91 357 3.0 5.0 0.00 0.00 0.00 61 1011.5
20260905154803 89 195 1.0 5.0 0.00 0.00 0.00 63 1011.8
20260905154304 88 298 1.0 6.0 0.00 0.00 0.00 64 1011.5
20260905153804 87 7 2.0 6.0 0.00 0.00 0.00 65 1011.5
20260905153304 88 330 5.0 7.0 0.00 0.00 0.00 65 1011.5
20260905152804 87 337 5.0 7.0 0.00 0.00 0.00 65 1011.5
20260905152306 87 349 2.0 9.0 0.00 0.00 0.00 66 1011.5
20260905151804 87 26 5.0 9.0 0.00 0.00 0.00 67 1011.5
20260905151304 88 33 7.0 7.0 0.00 0.00 0.00 66 1011.5
20260905150803 87 337 4.0 6.0 0.00 0.00 0.00 68 1011.1
20260905150304 88 55 3.0 6.0 0.00 0.00 0.00 67 1011.1
20260905145804 89 349 2.0 5.0 0.00 0.00 0.00 66 1011.1
20260905145306 90 336 2.0 5.0 0.00 0.00 0.00 64 1011.1
20260905144803 90 203 2.0 3.0 0.00 0.00 0.00 65 1011.1
20260905144303 87 194 0.0 3.0 0.00 0.00 0.00 69 1011.1
20260905143805 86 224 2.0 4.0 0.00 0.00 0.00 72 1011.5
20260905143303 87 253 3.0 4.0 0.00 0.00 0.00 69 1011.5
20260905142804 88 207 2.0 3.0 0.00 0.00 0.00 68 1011.8
20260905142306 86 198 0.0 4.0 0.00 0.00 0.00 72 1011.5
20260905141804 86 252 1.0 4.0 0.00 0.00 0.00 72 1011.8
20260905141304 87 235 3.0 4.0 0.00 0.00 0.00 70 1011.5
20260905140805 87 278 0.0 4.0 0.00 0.00 0.00 70 1011.8
20260905140304 87 161 0.0 4.0 0.00 0.00 0.00 70 1011.8
20260905135803 88 136 3.0 4.0 0.00 0.00 0.00 66 1011.5
20260905135306 87 203 0.0 3.0 0.00 0.00 0.00 69 1011.8
20260905134803 86 160 1.0 3.0 0.00 0.00 0.00 69 1011.8
20260905134304 85 189 2.0 3.0 0.00 0.00 0.00 69 1011.8
20260905133804 85 147 2.0 3.0 0.00 0.00 0.00 68 1011.5
20260905133304 84 147 3.0 3.0 0.00 0.00 0.00 73 1011.8
20260905132804 83 103 2.0 3.0 0.00 0.00 0.00 76 1011.8
20260905132306 83 120 1.0 3.0 0.00 0.00 0.00 77 1011.8
20260905131803 82 136 2.0 3.0 0.00 0.00 0.00 78 1011.8
20260905131304 82 160 2.0 3.0 0.00 0.00 0.00 78 1011.8
20260905130803 81 186 1.0 4.0 0.00 0.00 0.00 80 1011.8
20260905130304 81 108 1.0 6.0 0.00 0.00 0.00 80 1011.8
20260905125803 79 230 3.0 6.0 0.00 0.00 0.00 84 1012.1
20260905125306 78 140 3.0 7.0 0.00 0.00 0.00 86 1012.1
20260905124804 78 98 3.0 7.0 0.00 0.00 0.00 86 1012.1
20260905124304 78 72 5.0 7.0 0.00 0.00 0.00 87 1012.1
20260905123803 77 183 2.0 7.0 0.00 0.00 0.00 89 1012.1
20260905123304 77 95 4.0 8.0 0.00 0.00 0.00 89 1011.8
20260905122804 77 81 4.0 8.0 0.00 0.00 0.00 89 1012.1
20260905122306 77 84 5.0 7.0 0.00 0.00 0.00 90 1011.8
20260905121803 77 89 5.0 7.0 0.00 0.00 0.00 90 1011.8
20260905121304 77 99 4.0 6.0 0.00 0.00 0.00 90 1012.1
20260905120804 77 106 5.0 6.0 0.00 0.00 0.00 90 1011.8
20260905120303 77 112 4.0 5.0 0.00 0.00 0.00 90 1011.8
20260905115804 77 112 4.0 5.0 0.00 0.00 0.00 90 1011.8
20260905115306 76 115 4.0 5.0 0.00 0.00 0.00 91 1011.8
20260905114803 76 115 3.0 5.0 0.00 0.00 0.00 90 1011.8
20260905114304 76 111 4.0 6.0 0.00 0.00 0.00 91 1011.5
20260905113803 76 126 4.0 6.0 0.00 0.00 0.00 92 1011.5
20260905113303 75 92 5.0 6.0 0.00 0.00 0.00 92 1011.5
20260905112803 75 76 3.0 5.0 0.00 0.00 0.00 92 1011.1
20260905112305 75 103 2.0 5.0 0.00 0.00 0.00 92 1011.1
20260905111803 75 56 3.0 5.0 0.00 0.00 0.00 91 1011.5
20260905111304 75 79 3.0 5.0 0.00 0.00 0.00 92 1011.5
20260905110804 75 103 3.0 6.0 0.00 0.00 0.00 92 1011.5
20260905110303 75 101 4.0 6.0 0.00 0.00 0.00 92 1011.1
20260905105804 75 86 5.0 6.0 0.00 0.00 0.00 91 1011.1
20260905105306 75 118 2.0 5.0 0.00 0.00 0.00 91 1011.1
20260905104804 75 356 1.0 6.0 0.00 0.00 0.00 91 1011.1
20260905104304 75 114 2.0 8.0 0.00 0.00 0.00 92 1010.8